Wind_Speed
28 28 29 30 30 30 31 31 31 32 32 32 33 33 33 34 34 34 35 35 36 36 36 37 37 37 38 38 38 39 39 39 40 40 41 41 41 42 42 42 43 43 43
29 30 31 31 31 32 32 32 32 33 33 33 33 34 34 35 35 35 36 36 36 37 37 37 38 38 38 39 39 40 40 40 41 41 41 42 42 42 42 43 43 44 44
30 31 31 31 32 32 33 33 34 34 34 34 35 35 35 36 36 36 36 36 37 37 38 38 39 39 40 40 41 41 42 42 43 43 43 44 44 44 44 44 44 45 45
32 32 32 32 33 33 34 34 34 34 35 35 36 36 36 36 37 37 37 37 38 38 39 40 41 41 41 42 42 42 43 43 44 44 44 45 45 46 46 46 46 46 46
33 33 33 34 34 34 34 35 35 35 36 36 37 37 37 38 38 38 38 39 39 40 41 42 42 42 43 43 43 43 44 45 45 45 46 46 46 46 47 47 47 47 48
34 34 34 35 35 35 35 35 35 36 36 37 38 38 38 38 39 39 39 40 41 41 42 43 43 43 43 43 44 44 45 45 46 46 46 46 47 47 47 48 48 49 49
35 35 35 35 35 35 36 36 36 37 37 38 38 38 39 39 40 40 40 41 43 43 43 43 43 43 43 44 44 45 45 45 46 46 47 47 47 48 48 49 50 50 51
36 36 36 36 36 36 37 37 37 37 38 38 38 39 39 40 40 41 42 43 43 43 43 44 44 44 45 45 45 46 46 46 47 47 47 48 48 49 49 50 50 51 51
36 37 36 37 37 37 37 37 37 38 38 39 39 39 39 40 40 41 42 43 44 44 44 45 45 45 46 46 46 46 46 46 47 47 48 49 49 50 50 51 51 52 52
37 37 37 37 37 37 37 37 38 38 39 39 39 40 41 41 41 41 42 43 44 44 45 45 46 46 47 47 47 47 47 47 48 48 49 49 50 51 52 52 53 54 54
38 38 38 38 38 38 38 38 38 38 39 40 40 41 41 42 42 43 43 43 44 45 45 46 46 47 48 48 48 48 48 49 49 49 50 51 52 53 53 54 55 56 56
38 38 38 38 38 38 38 38 38 39 40 41 41 41 42 43 43 44 44 44 44 45 46 47 48 48 49 48 49 49 50 50 51 52 53 54 55 56 57 58 58 59 60
37 38 38 38 38 38 38 39 39 40 41 41 42 43 43 44 45 45 45 45 45 45 47 48 49 49 49 49 50 51 52 53 55 56 57 58 59 60 61 62 63 64 65
38 38 38 38 38 38 39 39 40 41 41 42 43 44 44 45 46 46 46 47 46 47 47 48 49 50 50 51 52 54 55 57 58 60 61 62 63 64 65 67 68 69 70
38 37 37 37 37 38 39 40 41 41 42 43 44 45 45 46 47 47 48 49 49 48 47 48 50 51 53 54 56 57 59 60 61 63 64 65 66 68 70 71 72 73 73
37 37 37 36 37 38 40 41 41 42 43 44 45 46 47 47 48 49 49 50 51 51 50 51 52 54 56 58 60 61 62 63 64 65 67 68 70 72 73 74 75 76 77
36 36 36 37 38 39 40 41 41 42 43 45 46 47 47 48 49 50 50 51 52 53 54 54 56 57 60 61 63 64 65 66 67 69 70 72 73 75 75 76 77 77 77
36 36 36 37 38 39 40 41 42 43 45 46 46 47 49 50 51 51 52 53 55 56 57 57 59 61 63 64 65 66 67 69 70 72 73 74 75 76 76 76 75 75 74
35 36 36 37 38 39 40 41 43 44 45 46 47 49 50 51 52 53 54 56 57 59 60 62 63 64 65 66 67 68 70 71 72 73 75 75 75 74 74 73 73 72 71
35 35 36 38 39 40 41 42 43 44 45 47 48 50 52 53 54 55 57 58 60 61 63 65 66 66 67 68 69 70 70 71 72 73 73 73 72 71 71 70 69 68 67
35 36 37 38 39 41 42 43 44 45 46 48 50 51 53 54 56 57 59 60 62 64 65 67 67 67 68 69 71 71 71 71 70 70 70 69 68 67 66 66 65 64 62
35 36 37 38 40 41 42 43 44 46 47 49 51 53 54 55 57 59 61 63 65 66 68 68 69 69 70 71 71 71 71 70 68 68 67 65 64 63 62 61 60 57 54
36 36 37 39 40 41 43 44 45 47 48 50 52 53 55 56 59 61 62 64 66 68 70 70 70 71 71 71 71 70 69 68 67 65 64 60 60 58 57 56 54 51 47
36 37 38 39 40 42 43 45 46 48 50 51 53 54 56 58 60 62 64 66 67 68 69 70 71 71 70 70 69 68 67 65 63 61 60 57 54 52 52 51 48 44 40
36 37 38 39 41 42 44 46 47 49 50 52 53 55 58 60 62 64 66 67 67 68 69 70 70 69 68 68 68 67 64 62 59 57 55 53 50 48 46 44 41 37 34
36 37 38 40 41 43 45 46 48 50 51 52 54 57 59 61 63 65 67 67 68 68 69 68 67 67 66 66 65 64 61 58 56 52 50 49 46 43 39 36 34 31 28
Wind_Direction
291 292 292 292 293 294 294 294 295 294 294 294 294 293 293 293 292 292 291 291 290 290 289 289 288 287 287 286 285 284 283 282 281 280 279 278 276 275 274 273 272 271 270
291 292 292 292 292 293 294 294 295 294 294 293 293 293 293 292 292 292 292 291 290 290 289 289 288 288 287 286 285 284 283 282 281 280 279 278 277 276 275 274 273 272 271
290 290 291 291 292 292 293 293 293 293 293 293 293 293 293 292 292 292 292 291 291 290 289 289 288 288 287 286 285 284 283 283 282 281 280 279 278 276 275 275 274 273 272
289 290 290 290 291 291 292 292 292 293 294 294 294 294 294 293 293 292 292 291 291 291 290 290 289 288 288 286 285 285 284 283 282 281 281 279 278 277 276 276 275 274 273
289 289 290 290 291 291 291 291 292 294 294 294 294 295 295 294 294 293 293 292 292 292 291 290 289 289 288 287 286 285 285 284 283 282 281 280 279 278 277 276 275 275 274
288 289 290 290 290 290 291 291 292 293 294 294 295 295 295 295 295 294 294 294 293 293 292 291 290 290 289 288 288 287 286 285 284 283 282 281 280 279 278 277 276 275 275
287 288 289 289 289 290 291 291 292 293 293 294 295 295 296 296 296 296 295 295 295 294 293 293 292 291 290 290 289 288 287 286 285 284 283 282 281 280 279 278 277 276 276
286 287 288 289 289 290 291 291 292 292 293 294 295 295 296 297 297 297 297 297 296 295 294 294 293 292 292 292 291 290 289 288 286 285 284 283 282 281 280 279 278 277 277
286 286 287 288 288 289 290 291 291 292 293 294 294 295 296 296 296 297 298 298 297 296 295 295 294 294 293 293 292 291 290 289 288 286 285 284 284 283 282 281 280 279 277
285 285 285 286 287 288 289 290 291 292 293 294 295 296 296 297 296 297 298 298 297 297 296 296 295 295 294 294 293 292 291 290 289 288 286 286 285 284 283 282 281 280 279
283 284 284 285 286 288 289 290 291 292 293 294 295 296 296 297 297 298 298 299 298 298 298 297 297 296 296 295 294 293 292 292 291 290 289 288 287 286 284 283 282 281 279
282 283 283 284 286 287 288 289 291 292 293 294 296 296 297 298 298 298 298 298 298 299 299 298 298 297 296 295 294 294 293 293 292 292 291 290 289 288 286 285 284 282 281
280 281 283 284 285 286 288 289 291 293 294 295 296 297 298 298 299 299 299 299 298 299 299 299 298 297 297 296 295 294 294 293 293 292 291 290 289 288 287 286 285 284 282
279 281 283 283 284 286 288 290 292 293 294 295 296 297 298 299 300 300 299 299 299 299 299 299 298 298 297 296 296 295 295 294 293 293 292 291 290 289 288 287 286 284 283
279 281 282 283 285 286 288 291 293 293 294 296 297 298 299 299 300 300 300 300 299 299 299 299 298 298 298 297 297 296 296 296 295 294 293 292 291 290 289 287 286 284 283
279 281 282 283 285 287 289 291 293 293 295 296 298 299 299 300 300 301 301 300 300 300 300 300 300 299 299 298 298 297 297 296 295 295 294 293 292 291 289 288 286 285 283
279 280 281 283 285 287 289 291 292 294 296 297 298 299 299 300 301 301 301 301 301 301 301 301 301 300 300 299 299 298 298 297 296 296 295 294 293 292 290 289 288 287 285
279 280 282 284 285 287 289 291 293 295 296 297 298 299 300 301 301 301 301 302 302 302 302 302 302 301 301 300 299 299 299 298 297 297 296 295 294 292 291 290 289 288 287
279 280 282 284 286 288 289 291 293 295 297 298 298 299 300 301 302 302 302 302 302 303 303 303 303 302 301 300 300 300 300 300 299 298 297 296 294 294 292 291 290 289 288
279 280 282 284 287 289 290 292 294 296 297 298 299 300 301 302 302 302 303 303 303 303 304 304 304 303 302 301 301 301 301 301 300 299 298 297 296 295 293 293 292 291 289
279 282 284 286 288 290 291 293 294 296 297 298 300 301 302 303 303 303 303 304 304 304 304 304 304 303 303 302 302 302 302 302 301 300 299 298 297 296 296 295 294 293 292
281 284 285 287 289 290 292 293 294 296 297 299 300 301 302 303 303 304 304 305 305 305 305 305 304 304 304 304 303 303 303 303 302 300 300 299 298 298 297 296 296 295 293
283 285 286 288 289 291 292 293 295 297 299 300 301 302 303 303 304 305 305 306 306 306 306 306 306 306 305 304 304 304 304 304 303 302 301 300 299 299 298 298 297 296 293
284 286 287 289 290 292 293 295 297 298 300 301 302 302 303 304 305 306 306 307 307 307 306 306 306 306 305 305 305 305 305 305 305 304 302 302 301 300 300 300 298 296 293
285 286 288 290 292 293 295 296 298 299 300 301 302 303 304 306 306 307 307 308 308 308 307 307 307 307 306 306 306 306 306 306 306 305 303 303 303 302 301 300 298 296 295
285 287 290 292 293 295 296 297 298 300 301 302 303 305 306 307 307 308 309 309 309 308 308 308 308 307 308 307 307 307 307 306 306 305 304 304 304 303 302 299 297 297 297
Height
5835 5833 5832 5830 5828 5826 5824 5821 5819 5817 5814 5812 5809 5807 5804 5802 5799 5797 5794 5791 5789 5786 5783 5780 5778 5775 5773 5770 5768 5766 5763 5761 5759 5757 5755 5754 5752 5751 5749 5748 5747 5746 5745
5829 5827 5826 5824 5822 5819 5817 5815 5813 5810 5808 5805 5803 5800 5798 5795 5792 5789 5787 5784 5781 5778 5775 5772 5770 5767 5764 5762 5759 5757 5754 5752 5750 5748 5746 5744 5742 5741 5739 5738 5737 5736 5735
5823 5821 5819 5817 5815 5813 5811 5809 5806 5804 5801 5799 5796 5793 5790 5788 5785 5782 5779 5776 5773 5770 5767 5764 5761 5758 5756 5753 5750 5748 5745 5743 5740 5738 5736 5734 5732 5731 5729 5728 5726 5725 5724
5816 5815 5813 5811 5809 5807 5804 5802 5800 5797 5794 5791 5789 5786 5783 5780 5777 5774 5771 5768 5765 5761 5758 5755 5752 5749 5746 5743 5741 5738 5735 5733 5730 5728 5726 5724 5722 5720 5718 5717 5715 5714 5713
5809 5808 5806 5804 5802 5799 5797 5795 5792 5790 5787 5784 5781 5778 5775 5772 5768 5765 5762 5759 5756 5753 5749 5746 5743 5740 5737 5734 5731 5728 5725 5723 5720 5717 5715 5713 5711 5709 5707 5706 5704 5703 5702
5802 5800 5798 5796 5794 5792 5790 5788 5785 5782 5779 5776 5773 5770 5767 5764 5760 5757 5754 5750 5747 5744 5740 5737 5733 5730 5727 5724 5721 5718 5715 5712 5709 5707 5704 5702 5700 5698 5696 5694 5692 5691 5689
5795 5793 5791 5789 5787 5785 5782 5780 5777 5774 5772 5768 5765 5762 5759 5755 5752 5748 5745 5741 5738 5734 5730 5727 5723 5720 5717 5714 5710 5707 5704 5701 5698 5695 5693 5690 5688 5686 5684 5682 5680 5678 5677
5787 5785 5783 5781 5779 5777 5775 5772 5769 5767 5764 5761 5758 5754 5751 5748 5743 5739 5736 5732 5728 5724 5721 5717 5713 5710 5707 5703 5700 5696 5693 5690 5687 5684 5681 5678 5676 5673 5671 5669 5667 5665 5664
5779 5777 5775 5773 5771 5769 5767 5764 5761 5758 5756 5753 5749 5747 5743 5740 5736 5732 5727 5723 5719 5715 5711 5707 5703 5699 5696 5692 5689 5685 5682 5678 5675 5672 5669 5666 5663 5661 5658 5656 5654 5652 5650
5771 5769 5767 5765 5763 5761 5759 5756 5753 5750 5747 5744 5741 5738 5735 5731 5727 5724 5719 5714 5709 5705 5701 5697 5693 5689 5685 5681 5677 5674 5670 5666 5663 5660 5657 5654 5651 5648 5645 5643 5640 5638 5636
5762 5761 5759 5757 5755 5753 5750 5748 5745 5742 5739 5736 5733 5729 5725 5722 5718 5714 5710 5706 5700 5695 5691 5686 5682 5678 5674 5670 5666 5662 5658 5654 5650 5647 5644 5640 5637 5634 5631 5628 5626 5623 5621
5754 5752 5750 5749 5746 5744 5742 5739 5736 5733 5730 5727 5724 5720 5716 5713 5709 5705 5701 5696 5692 5686 5681 5676 5671 5667 5663 5658 5654 5650 5646 5642 5638 5634 5630 5626 5623 5619 5616 5612 5609 5607 5604
5745 5744 5742 5740 5738 5736 5733 5731 5728 5725 5722 5718 5715 5711 5707 5703 5699 5695 5691 5686 5682 5677 5671 5666 5660 5656 5651 5647 5642 5638 5634 5629 5625 5620 5616 5611 5607 5603 5599 5595 5591 5588 5585
5737 5735 5734 5731 5729 5727 5725 5722 5719 5716 5713 5709 5705 5702 5697 5693 5689 5684 5680 5676 5672 5667 5662 5656 5649 5644 5639 5635 5630 5625 5620 5615 5610 5605 5600 5595 5590 5585 5581 5576 5572 5568 5564
5728 5727 5725 5723 5721 5718 5716 5713 5710 5707 5704 5700 5696 5692 5688 5683 5678 5674 5669 5664 5660 5656 5652 5645 5639 5632 5627 5622 5616 5611 5605 5599 5594 5588 5582 5577 5571 5566 5560 5555 5550 5545 5541
5719 5718 5716 5714 5712 5710 5707 5704 5701 5698 5694 5690 5686 5682 5677 5673 5668 5663 5658 5653 5647 5643 5639 5634 5627 5620 5613 5607 5601 5595 5589 5583 5576 5570 5563 5557 5551 5545 5538 5532 5527 5521 5517
5711 5709 5707 5706 5703 5701 5698 5695 5692 5688 5685 5680 5676 5672 5667 5662 5657 5651 5646 5641 5635 5629 5625 5621 5613 5606 5599 5592 5585 5578 5571 5565 5558 5550 5543 5536 5529 5522 5515 5508 5502 5496 5491
5702 5700 5699 5697 5694 5692 5689 5686 5682 5679 5675 5670 5666 5661 5656 5651 5646 5640 5634 5628 5622 5616 5610 5606 5600 5591 5584 5576 5569 5561 5554 5546 5538 5530 5522 5514 5506 5498 5491 5484 5478 5472 5466
5693 5692 5690 5688 5685 5682 5679 5676 5672 5669 5664 5660 5655 5650 5645 5639 5634 5628 5622 5615 5609 5602 5595 5589 5583 5575 5567 5558 5551 5544 5535 5527 5518 5509 5500 5492 5484 5476 5468 5461 5455 5449 5443
5684 5682 5680 5678 5675 5673 5669 5666 5662 5658 5654 5649 5644 5639 5633 5627 5621 5615 5609 5602 5595 5588 5580 5573 5566 5558 5549 5540 5532 5525 5518 5508 5498 5488 5479 5470 5462 5454 5446 5439 5433 5427 5421
5675 5673 5671 5668 5666 5663 5659 5655 5652 5648 5643 5638 5633 5627 5621 5615 5608 5601 5594 5587 5580 5572 5564 5556 5548 5540 5532 5522 5514 5505 5497 5490 5480 5468 5460 5451 5442 5434 5426 5419 5412 5407 5401
5666 5664 5661 5659 5656 5653 5649 5645 5641 5637 5632 5627 5621 5615 5609 5602 5595 5587 5580 5572 5563 5554 5546 5538 5530 5521 5513 5503 5494 5485 5476 5469 5462 5453 5442 5434 5424 5416 5408 5401 5394 5388 5383
5656 5654 5652 5649 5646 5642 5638 5635 5630 5626 5621 5615 5609 5603 5596 5589 5581 5574 5566 5557 5547 5536 5527 5519 5511 5502 5493 5485 5475 5467 5457 5448 5441 5431 5422 5417 5408 5400 5392 5384 5378 5373 5368
5647 5644 5642 5639 5635 5632 5628 5624 5619 5614 5609 5603 5597 5590 5583 5576 5567 5559 5551 5542 5532 5521 5511 5501 5492 5483 5474 5464 5455 5447 5439 5432 5424 5413 5404 5399 5393 5386 5378 5370 5364 5359 5355
5637 5634 5631 5628 5625 5621 5617 5612 5607 5602 5597 5591 5584 5577 5569 5562 5554 5545 5536 5527 5517 5506 5495 5484 5475 5465 5455 5446 5437 5429 5421 5414 5408 5400 5390 5384 5379 5373 5366 5358 5352 5348 5344
5627 5624 5621 5618 5614 5610 5605 5601 5596 5591 5585 5579 5572 5564 5556 5547 5538 5528 5519 5510 5501 5491 5480 5470 5459 5449 5439 5429 5420 5411 5404 5397 5391 5385 5378 5371 5365 5359 5356 5349 5343 5339 5336